EW9824 Weather Reports


time (UTC)temp
F
wind
direction
speed
knots
gust
knots
rain 1hr
in
rain 24hr
in
rain mn
in
humidity
%
barometer
mb
20260506044532 56 83 0.9 1.7 0.00 0.00 0.00 76 1017.4
20260506043030 58 71 0.9 2.6 0.00 0.00 0.00 73 1017.2
20260506041531 60 35 1.7 3.5 0.00 0.00 0.00 69 1017.1
20260506040107 61 22 3.5 6.1 0.00 0.00 0.00 68 1016.9
20260506034529 62 29 3.5 6.1 0.00 0.00 0.00 66 1016.6
20260506033030 63 20 2.6 7.8 0.00 0.00 0.00 64 1016.4
20260506031530 65 27 2.6 6.1 0.00 0.00 0.00 61 1016.2
20260506030031 66 6 3.5 6.1 0.00 0.00 0.00 59 1016.0
20260506024530 68 15 3.5 6.1 0.00 0.00 0.00 57 1015.8
20260506023029 69 24 2.6 5.2 0.00 0.00 0.00 55 1015.7
20260506021537 70 18 2.6 6.1 0.00 0.00 0.00 55 1015.7
20260506020031 71 32 5.2 8.7 0.00 0.00 0.00 54 1015.6
20260506013031 72 14 5.2 9.6 0.00 0.00 0.00 52 1015.4
20260506011529 73 360 4.3 8.7 0.00 0.00 0.00 51 1015.3
20260506010031 74 349 4.3 9.6 0.00 0.00 0.00 50 1015.2
20260506004533 75 348 4.3 7.8 0.00 0.00 0.00 49 1015.2
20260506003035 75 11 4.3 11.3 0.00 0.00 0.00 50 1015.2
20260506001542 75 18 6.1 10.4 0.00 0.00 0.00 50 1015.3
20260506000035 75 18 5.2 10.4 0.00 0.00 0.00 49 1015.4
20260505234529 75 20 4.3 9.6 0.00 0.00 0.00 50 1015.5
20260505233031 75 5 6.1 10.4 0.00 0.00 0.00 50 1015.5
20260505231531 76 11 5.2 10.4 0.00 0.00 0.00 50 1015.5
20260505230032 75 18 4.3 10.4 0.00 0.00 0.00 50 1015.6
20260505224532 75 15 5.2 9.6 0.00 0.00 0.00 51 1015.7
20260505223029 74 5 5.2 12.2 0.00 0.00 0.00 51 1015.8
20260505221531 74 11 6.1 11.3 0.00 0.00 0.00 51 1015.9
20260505220030 75 6 5.2 11.3 0.00 0.00 0.00 50 1016.0
20260505214532 75 3 4.3 8.7 0.00 0.00 0.00 50 1016.1
20260505213029 74 1 4.3 9.6 0.00 0.00 0.00 51 1016.1
20260505211530 74 11 5.2 10.4 0.00 0.00 0.00 52 1016.2
20260505210029 73 5 4.3 8.7 0.00 0.00 0.00 52 1016.3
20260505204608 73 7 3.5 7.8 0.00 0.00 0.00 52 1016.5
20260505203032 73 2 4.3 8.7 0.00 0.00 0.00 53 1016.5
20260505201603 72 349 4.3 8.7 0.00 0.00 0.00 54 1016.6
20260505200146 72 359 3.5 7.8 0.00 0.00 0.00 54 1016.7
20260505194602 72 17 4.3 9.6 0.00 0.00 0.00 53 1016.8
20260505191605 71 40 3.5 9.6 0.00 0.00 0.00 53 1016.8
20260505190029 70 32 2.6 6.1 0.00 0.00 0.00 54 1016.9
20260505184530 69 17 3.5 8.7 0.00 0.00 0.00 56 1017.0
20260505183029 69 43 5.2 9.6 0.00 0.00 0.00 56 1017.1
20260505180029 67 12 5.2 9.6 0.00 0.00 0.00 57 1017.0
20260505174604 66 353 3.5 9.6 0.00 0.00 0.00 59 1016.9
20260505173029 65 333 2.6 7.0 0.00 0.00 0.00 60 1016.9
20260505171532 65 341 3.5 7.8 0.00 0.00 0.00 62 1016.9
20260505170028 64 351 2.6 7.0 0.00 0.00 0.00 63 1016.9
20260505163030 63 16 3.5 7.8 0.00 0.00 0.00 67 1016.8
20260505161531 62 34 4.3 9.6 0.00 0.00 0.00 69 1016.9
20260505153029 59 31 3.5 7.0 0.00 0.00 0.00 78 1016.9
20260505151603 57 27 2.6 5.2 0.00 0.00 0.00 87 1016.8
20260505130104 48 168 1.7 3.5 0.00 0.00 0.00 95 1015.7
20260505123031 48 168 1.7 4.3 0.00 0.00 0.00 95 1015.7
20260505121529 48 185 0.9 3.5 0.00 0.00 0.00 95 1015.7
20260505114528 48 176 1.7 3.5 0.00 0.00 0.00 95 1015.6
20260505113033 48 200 0.9 3.5 0.00 0.00 0.00 95 1015.5
20260505111645 48 175 1.7 3.5 0.00 0.00 0.00 94 1015.5
20260505101532 49 167 0.9 3.5 0.00 0.00 0.00 93 1015.1
20260505100037 49 139 0.0 2.6 0.00 0.00 0.00 92 1015.1
20260505094531 49 145 0.9 2.6 0.00 0.00 0.00 91 1015.0
20260505093033 49 137 0.9 2.6 0.00 0.00 0.00 90 1015.0
20260505091531 49 199 0.9 2.6 0.00 0.00 0.00 89 1014.9
20260505090030 50 175 0.9 3.5 0.00 0.00 0.00 88 1014.8
20260505084603 51 140 0.0 2.6 0.00 0.00 0.00 86 1014.8
20260505083030 52 153 0.9 3.5 0.00 0.00 0.00 83 1014.8
20260505081536 53 223 1.7 4.3 0.00 0.00 0.00 83 1014.8
20260505080104 53 170 2.6 5.2 0.00 0.00 0.00 83 1014.8
20260505074529 54 182 2.6 4.3 0.00 0.00 0.00 82 1014.7
20260505073031 54 172 1.7 4.3 0.00 0.00 0.00 81 1014.7
20260505063107 57 165 2.6 5.2 0.00 0.00 0.00 74 1014.7
20260505061533 59 147 1.7 3.5 0.00 0.00 0.00 69 1014.7
20260505060030 62 192 0.9 8.7 0.00 0.00 0.00 67 1014.8
20260505054531 63 267 5.2 11.3 0.00 0.00 0.00 66 1014.6
20260505053037 63 258 3.5 7.8 0.00 0.00 0.00 66 1014.6
20260505051530 62 236 4.3 11.3 0.00 0.00 0.00 66 1014.6